Погода в Мценске

Погода в Мценске : погода сейчас, прогноз погоды и архив. Всё, что Вы хотите узнать о погоде в Мценске!

Поиск расширенной информации на нашем сайте:

Другие новости

Новости СМИ2

Главная страница сайта

Новости сайта

03.07.2017

Напоминаем, что на нашем специализированном сайте Метеоцентр.Азия вы можете получить высокодетализированные автоматические прогнозы погоды по пунктам России, СНГ и мира в авиационном формате (включающие направление и скорость ветра, видимость, явления погоды, количество и форму облачности, нижнюю и верхнюю границу облачности).


Погода в Мценске - сегодня

Время (UTC), дата Ветер
(°,м/с) 
Видим.   Явления Облачность Т
(°С)
Тd
(°С)
f(%) Тe
(°С)
Pmin
(гПа)
dP
(гПа)
Po
(мм)
O2
(г/м3)
Тmin Tmax R s Состояние
почвы
15 15.04.18 250 (З) 35000 м    8/6 600 м кучево-дожд., средняя 
[Cb calv|Ac trans]
+14.8 +0.2 37 +16  1022.4  -1.6  749  286           
21 15.04.18 190 (Ю) 10 км    4/4 600 м 
[Sc]
+8.4 +2.2 65 +9  1021.9  -0.6  748  292           
00 16.04.18 тихо ()   10 км    8/8 600 м 
[Sc]
+7.4 +2.1 69 +7  1021.8  -0.2  748  293           
09 16.04.18 270 (З) 27000 м    4/0 средняя 
[Ac trans]
+17.5 +6.1 47 +18  1020.7  -0.2  748  282           
12 16.04.18 290 (З) 30000 м    8/6 600 м кучево-дожд., средняя 
[Cb calv|Ac trans]
+19.8 +3 33 +21  1019  -1.4  747  280           
15 16.04.18 260 (З) 29000 м    8/4 600 м средняя, верхняя 
[Sc|Ac trans|Ci fib]
+19.5 +6.9 44 +20  1017.8  -1.2  746  279           
00 17.04.18 240 (ЮЗ) 10 км    10/10 600 м 
[Sc]
+11.3 +6.7 73 +12  1017.9  745  287           
03 17.04.18 тихо ()   10 км    6/6 600 м средняя 
[Sc|Ac trans]
+5.8 +3.9 88 +6  1018  -0.4  745  293  +5.7         
09 17.04.18 120 (ЮВ) 21000 м    9/0 средняя 
[Ac As]
+20 +6.5 41 +20  1016.8  745  279           
12 17.04.18 260 (З) 28000 м    10/6 600 м средняя 
[Sc|Ac As]
+20.3 +7.5 44 +20  1016.8  745  278           
15 17.04.18 220 (ЮЗ) 28000 м    10/0 средняя 
[Ac As]
+18.9 +6 43 +20  1015.5  -1.4  744  279           
21 17.04.18 210 (ЮЗ) 10 км    10/10 600 м 
[Sc]
+13.6 +3.1 49 +15  1015.2  -0.6  743  285           
21 18.04.18 270 (З) 10 км  слаб. дождь  10/10 300 м 
[Frnb|Ns]
+7 +4.7 85 +7  1009.3  -2.3  739  289           
18 19.04.18 360 (С) 2{17}  10 км  {ливн. осадки}  10/10 600 м кучево-дожд. 
[Cb calv]
+9.3 +4.8 73 +9  1006.5  2.5  737  286    +12.8     
21 19.04.18 360 (С) 10 км    10/10 600 м 
[Sc]
+9 +3.5 68 +9  1008  1.5  738  287           
00 20.04.18 350 (С) 10 км    ясно 
+9 -1 49 +8  1008.4  0.4  738  288           
21 20.04.18 260 (З) 10 км    4/0 верхняя 
[Ci fib]
+9.3 -1.3 47 +9  1014.1  -1.2  742  289           
00 21.04.18 250 (З) 10 км    ясно 
+8 -0.1 57 +7  1012.6  -1.6  741  290           
03 21.04.18 240 (ЮЗ) 25000 м    9/9 600 м 
+6.3 -0.2 63 +6  1011.3  -1.5  740  291           
18 21.04.18 230 (ЮЗ) 2{20}  4000 м  дымка{гроза, ливн. осадки}  9/9 600 м кучево-дожд. 
[Cb calv]
+11.7 +10.1 90 +14  993.7  728  279    +21     
21 22.04.18 360 (С) 10 км    10/6 600 м средняя 
[Sc|Ac und]
+3 -4.6 57 +2  1009.4  2.5  738  295           
00 23.04.18 350 (С) 10 км    8/0 средняя 
[Ac trans]
+1.3 -5.8 59 +1  1011  1.5  740  297           
09 23.04.18 340 (С) 4{10}  35000 м    3/3 600 м 
[Cu hum]
+5.5 -10 32 +4  1014  0.5  742  294           
21 23.04.18 тихо ()   10 км    ясно 
+3.5 -7.1 46 +4  1014.9  0.2  743  296           
00 24.04.18 тихо ()   10 км    ясно 
-0.9 -5.1 73 -1  1015.5  0.1  743  301           
Время (UTC), дата Ветер
(°,м/с) 
Видим.   Явления Облачность Т
(°С)
Тd
(°С)
f(%) Тe
(°С)
Pmin
(гПа)
dP
(гПа)
Po
(мм)
O2
(г/м3)
Тmin Tmax R s Состояние
почвы

Для получения пояснительной информации подведите курсор к названию столбца.

ПОГОДА в Мценске - архив

Всё, что Вы хотите узнать о погоде в Мценске - удобно и подробно!

Выберите нужную дату (начиная с 1 января 2015* года) и нажмите кнопку "Найти".
Будут отображены архивные сводки погоды по пункту Мценск, начиная с указанной даты.


Отображать данные в формате CSV (для использования в таблицах Excel)


Внимание! Наш архив погоды предназначен исключительно для личного некоммерческого использования в познавательных целях. Если Вам необходимы официальные справки о состоянии погоды (для производственных, юридических, коммерческих и т.п. целей), обращайтесь в органы Росгидромета.

*Примечание: данная дата относится к архиву по метеостанциям СССР (Россия, СНГ, Балтия).
Архив по метеостанциям Зарубежной Европы и Азии (кроме Китая) хранится 10 дней, по другим регионам земного шара (Китай, Африка, Америка, Австралия, Океания) - 1 день.

Мценск - район местоположения метеостанции


Название, широта, долгота, высота метеостанции:
Мценск 53.4°ш. 36.5°д. 201 м над ур. моря [Российская Федерация]

Дополнительная информация

В oтличие oт бoльшинства пoгoдных сайтoв мы публикуем пoдрoбную метеoинфoрмацию в детальнoм прoфессиoнальнoм фoрмате.

Характеристики температуры и влажнoсти вoздуха измеряются на высoте 2 м в тени вдали oт зданий и деревьев.
Скoрoсть ветра измеряется на высoте 10 м (на урoвне рoста челoвека скoрoсть ветра ниже в 1.5-2 раза). Если метеoстанция нахoдится в гoрoде или в лесу, тo скoрoсть ветра занижена на 2-4 м/с пo сравнению с oткрытым местoм. Скoрoсть ветра над акватoриями крупных рек и oзёр, а также на вершинах хoлмoв на 2-5 м/с выше, чем в oбычных услoвиях.
Атмoсфернoе давление в разных тoчках местнoсти мoжет значительнo oтличаться oт давления на метеoстанции, в зависимoсти oт услoвий рельефа (при пoдъёме на 10 м давление пoнижается примернo на 1 мм рт.ст.).